Regional Weather Roundup
Issued by NWS Green Bay, WI

Home | Current Version | Previous Version | Graphics & Text | Print | Product List | Glossary Off
Versions: 1 2 3 4 5 6 7 8 9 10 11 12 13 14 15 16 17 18 19 20 21 22 23 24 25 26 27 28 29 30 31 32 33 34 35 36 37 38 39 40 41 42 43 44 45 46 47 48 49 50

000
ASUS43 KGRB 190711
RWRGRB

NORTH-CENTRAL AND NORTHEAST WISCONSIN REGIONAL WEATHER ROUNDUP
NATIONAL WEATHER SERVICE GREEN BAY WI
200 AM CDT THU APR 19 2018

WIZ005-009-010>012-018-019-190800-
NORTH CENTRAL WISCONSIN

CITY           SKY/WX    TMP DP  RH WIND       PRES   REMARKS
IRONWOOD       FAIR      17  15  92 W3        30.23R
MANITOWISH WTR FAIR      28  15  58 N5        30.17R
ARBOR VITAE    FAIR      23  15  70 CALM      30.16R
EAGLE RIVER    FAIR      27  14  58 N3        30.15R
LAND O LAKES   FAIR      28  18  65 N8        30.17R
RHINELANDER    FAIR      29  15  56 N5        30.15R
PHILLIPS       FAIR      28  14  54 N6        30.18R
ANTIGO         FAIR      26  15  61 N9        30.13R
TOMAHAWK       FAIR      27  14  58 N3        30.16R
MERRILL          N/A     29  17  63 NW5       30.15S
$$

WIZ013-073-190800-
NORTHEAST WISCONSIN

CITY           SKY/WX    TMP DP  RH WIND       PRES   REMARKS
IRON MOUNTAIN  FAIR      28  17  63 NW9       30.11S
MARINETTE      FAIR      34  19  54 N12       30.11R
OCONTO         FAIR      33  18  55 N6        30.10R
$$

WIZ017-030-035>037-045-190800-
CENTRAL WISCONSIN

CITY           SKY/WX    TMP DP  RH WIND       PRES   REMARKS
MEDFORD        FAIR      28  14  56 N6        30.15S
WAUSAU         FAIR      29  17  61 NW6       30.13R
MOSINEE        FAIR      30  18  59 N8        30.14R
MARSHFIELD     FAIR      32  17  54 N10       30.13R
WISC RAPIDS    FAIR      31  16  54 N9        30.15R
STEVENS POINT  FAIR      30  15  55 N6        30.14R
WAUPACA        FAIR      34  18  52 N6        30.12R
SHAWANO        FAIR      34  19  53 N8        30.11R
CLINTONVILLE   FAIR      34  16  47 N9        30.11R
WAUTOMA        FAIR      30  20  66 N6        30.12R
$$

WIZ038-039-048-051-190800-
FOX VALLEY

CITY           SKY/WX    TMP DP  RH WIND       PRES   REMARKS
NWS GREEN BAY  FAIR      33  20  58 N15       30.09R
APPLETON       FAIR      32  16  51 N13       30.07S
OSHKOSH        FAIR      32  20  61 N10       30.09R
FOND DU LAC    FAIR      31  20  63 N9        30.09R
$$

WIZ022-050-052-190800-
EAST CENTRAL WISCONSIN

CITY           SKY/WX    TMP DP  RH WIND       PRES   REMARKS
EPHRAIM        FAIR      31  25  79 N8        30.07R
WASHINGTON ISL FAIR      32  26  78 N12G17    30.08S
STURGEON BAY   FAIR      31  26  82 N13       30.09R
MANITOWOC      FAIR      32  20  61 N10       30.06R
SHEBOYGAN      FAIR      32  21  64 N12       30.06R
$$

LMZ563-521-522-541>543-190800-
LAKESHORE

STATION/POSITION TIME  TEMP    WIND        PRES    VSBY  WAVE
                       AIR SEA DIR/SP/G                  HT/PER
                 (UTC) (F)     (DEG/KT/KT) (MB)    (MI)  (FT/S)
SHEBOYGAN LKSHOR 0700   36     350/ 16/ 19 1018.3R
KEWAUNEE LKSHORE 0648   34     340/  9/ 14 1017.3R
NORTHPORT PIER   0640   33                 1018.6R
SISTER BAY LKSHO 0612   34     330/ 14/ 17   N/A
MENOMINEE LKSHOR 0648   33     350/ 15/ 20 1018.8R
$$




USA.gov is the U.S. government's official web portal to all federal, state and local government web resources and services.